Lexington Weather

Lexington, Massachusetts, USA

70°F
8/17/2022 6:26pm 
  • Lexington Conditions: Overcast
  • Temperature: 70.0°F / 21.1°CColder 0.2°F than last hour.
  • Dew Point: 59.0°FIncreased 1.1°Fsince last hour.
  • Relative Humidity: 68%Increased 3.0% since last hour.
  • Wind: Calm, 10-min avg: Calm, gust: None
  • Barometer: 29.85 inFalling 0.02  inHg/hr Falling Slowly
  • Visibility: 10 miles
  • Rain Today: 0.00 in
  •   

Regional Weather Roundup
for Boston, MA

        
000
ASUS41 KBOX 172110
RWRBOX

REGIONAL WEATHER ROUNDUP
NATIONAL WEATHER SERVICE BOSTON/NORTON MA
500 PM EDT WED AUG 17 2022

NOTE:  "FAIR" INDICATES FEW OR NO CLOUDS BELOW 12,000 FEET WITH NO 
SIGNIFICANT WEATHER AND/OR OBSTRUCTIONS TO VISIBILITY.

MAZALL-172200-
EASTERN MASSACHUSETTS
  
CITY           SKY/WX    TMP DP  RH WIND       PRES   REMARKS
BOSTON         CLOUDY    71  52  50 N16       29.92F                  
BEVERLY        CLOUDY    69  52  54 N14G26    29.91F                  
LAWRENCE       CLOUDY    70  56  61 N13G21    29.94F                  
BEDFORD        PTSUNNY   73  55  53 N13G24    29.92F                  
BLUE HILL      NOT AVBL                                               
NORWOOD        CLOUDY    74  52  46 N14G22    29.92F                  
MARSHFIELD     PTSUNNY   70  55  60 VRB7G17   29.90S                  
PLYMOUTH       CLOUDY    71  54  54 N17G30    29.90S                  
TAUNTON          N/A    N/A N/A N/A MISG      29.90F                  
NEW BEDFORD    PTSUNNY   77  54  44 VRB7G16   29.89F                  
$$

MAZALL-172200-
CAPE COD AND THE ISLANDS
  
CITY           SKY/WX    TMP DP  RH WIND       PRES   REMARKS
FALMOUTH       PTSUNNY   70  55  60 N14G23    29.90S                  
HYANNIS        CLOUDY    69  57  65 N12       29.88S                  
CHATHAM        CLOUDY    67  58  72 NW9G17    29.89S                  
PROVINCETOWN   CLOUDY    64  61  90 N15G23    29.90S FOG              
NANTUCKET      CLOUDY    73  58  59 N22G30    29.89S                  
MARTHAS VNYRD  PTSUNNY   76  56  49 N15G23    29.89F                  
$$
 
MAZALL-172200-
CENTRAL AND WESTERN MASSACHUSETTS
  
CITY           SKY/WX    TMP DP  RH WIND       PRES   REMARKS
WORCESTER      PTSUNNY   69  53  56 N6        29.96F                  
FITCHBURG      PTSUNNY   72  49  44 N7        29.95F                  
ORANGE         CLOUDY    68  62  81 W5        29.97F                  
SPRINGFIELD    NOT AVBL                                               
WESTFIELD      LGT RAIN  73  56  54 N9        29.96S                  
NORTH ADAMS    LGT RAIN  66  62  87 E5        30.00S                  
PITTSFIELD     LGT RAIN  62  59  90 CALM      29.99S                  
$$
 
RIZALL-172200-
RHODE ISLAND
  
CITY           SKY/WX    TMP DP  RH WIND       PRES   REMARKS
PROVIDENCE     PTSUNNY   78  52  40 N15G22    29.92S                  
NEWPORT        SUNNY     75  57  53 N9        29.91F                  
BLOCK ISLAND   MOSUNNY   70  63  78 W8        29.93F                  
SMITHFIELD     MOSUNNY   76  53  44 N12G18    29.93F                  
WESTERLY       MOSUNNY   70  63  78 W7        29.93S                  
$$
 
CTZALL-172200-
CONNECTICUT
  
CITY           SKY/WX    TMP DP  RH WIND       PRES   REMARKS
BRADLEY INTL   CLOUDY    74  58  57 N6        29.95S                  
HARTFORD       CLOUDY    77  57  50 NE10      29.93F                  
BRIDGEPORT     MOSUNNY   78  59  51 SW10      29.92F                  
DANBURY        PTSUNNY   77  54  44 NW7       29.95F                  
GROTON         LGT RAIN  67  63  87 SW8       29.93F                  
NEW HAVEN      CLOUDY    73  61  65 E13       29.94R                  
CHESTER        FAIR      66  64  94 CALM      29.95F                  
MERIDEN        CLOUDY    73  58  59 NE5       29.93S                  
WILLIMANTIC    CLOUDY    72  60  66 N6        29.94F                  
OXFORD         LGT RAIN  65  62  90 E6        29.97R                  
$$

MEZ002-015-021-024-NHZ003-005-008-011-012-014-VTZ005-008-172200-
NORTHERN NEW ENGLAND
  
CITY           SKY/WX    TMP DP  RH WIND       PRES   REMARKS
PORTLAND ME    LGT RAIN  63  61  93 NW14G24   29.88F                  
BANGOR ME      LGT RAIN  62  60  93 N21G30    29.81F FOG              
CONCORD NH     LGT RAIN  67  59  75 N8        29.95F                  
MANCHESTER NH  PTSUNNY   71  57  61 N8        29.93F                  
NASHUA NH      CLOUDY    71  57  61 N8        29.94F                  
PORTSMOUTH NH  NOT AVBL                                               
JAFFREY NH     PTSUNNY   70  52  52 N5        29.98F                  
KEENE NH       PTSUNNY   69  63  81 NW5         N/A                   
BURLINGTON VT  CLOUDY    78  56  46 NE10      29.96F                  
MT. WASHINGTON LGT RAIN  43  43 100 N43G60      N/A  VSB 1/16WCI  30  
$$

NYZ052-076-172200-
EASTERN NEW YORK
  
CITY           SKY/WX    TMP DP  RH WIND       PRES   REMARKS
ALBANY         TSTM      75  60  59 W9        29.96S                  
NEW YORK CITY  PTSUNNY   80  53  39 N8        29.92F                  
$$
 
ANZALL-172200-
MARINE OBSERVATIONS
  
STATION/POSITION TIME  TEMP    WIND        PRES    VSBY  WAVE
                       AIR SEA DIR/SP/G                  HT/PER
                 (UTC) (F)     (DEG/KT/KT) (MB)    (MI)  (FT/S)
BOSTON BUOY      NOT AVBL
BUZZARDS BAY     NOT AVBL
NANTUCKET SOUND  NOT AVBL
MASS BAY-STELLWA NOT AVBL
ISLE OF SHOALS   NOT AVBL
S OF BLOCK IS    NOT AVBL
$$

......................KEY.........................
  SKY/WX - SKY CONDITION/PRESENT WEATHER
  TMP    - TEMPERATURE IN FAHRENHEIT
  DWPT   - DEWPOINT IN FAHRENHEIT
  RH     - RELATIVE HUMIDITY IN PERCENT
  WIND   - DIRECTION AND SPEED IN MPH
  PRES   - MEAN SEA LEVEL PRESSURE IN INCHES OF HG
  WCI    - WIND CHILL INDEX
  VSB    - VISIBILITY IN MILES
  HX     - HEAT INDEX
  TC     - TEMPERATURE IN CELSIUS
  VRB    - VARIABLE WIND DIRECTION
  N/A    - NOT AVAILABLE
  
      

Other recent Regional Weather Roundups

Wed Aug 17, 6:10pm

Wed Aug 17, 4:10pm

Wed Aug 17, 3:10pm

Wed Aug 17, 2:10pm

Wed Aug 17, 1:10pm

Wed Aug 17, 12:10pm

Wed Aug 17, 11:10am

Wed Aug 17, 10:10am

Wed Aug 17, 9:10am

Wed Aug 17, 8:10am

Wed Aug 17, 7:10am

Wed Aug 17, 6:10am

Wed Aug 17, 5:10am

Wed Aug 17, 4:10am

Wed Aug 17, 3:10am

Wed Aug 17, 2:10am

Wed Aug 17, 1:10am

Wed Aug 17, 12:10am

Tue Aug 16, 11:10pm

Tue Aug 16, 10:10pm

Tue Aug 16, 9:10pm

Tue Aug 16, 8:10pm

Tue Aug 16, 7:10pm

Tue Aug 16, 6:10pm

Tue Aug 16, 5:10pm

Tue Aug 16, 4:10pm

Tue Aug 16, 3:10pm

Tue Aug 16, 2:10pm

Tue Aug 16, 1:10pm

Tue Aug 16, 12:10pm

Tue Aug 16, 11:10am

Tue Aug 16, 10:10am

Tue Aug 16, 9:10am

Tue Aug 16, 8:10am

Tue Aug 16, 7:10am

Tue Aug 16, 6:10am

Tue Aug 16, 5:10am

Tue Aug 16, 4:10am

Tue Aug 16, 3:10am

Tue Aug 16, 2:10am

Tue Aug 16, 1:10am

Tue Aug 16, 12:10am

Mon Aug 15, 11:10pm

Mon Aug 15, 10:10pm

Mon Aug 15, 9:10pm

Mon Aug 15, 8:10pm

Mon Aug 15, 7:10pm

Mon Aug 15, 6:10pm

Mon Aug 15, 5:10pm

Mon Aug 15, 4:10pm

Mon Aug 15, 3:10pm

Mon Aug 15, 2:10pm

Mon Aug 15, 1:10pm

Mon Aug 15, 12:10pm

Mon Aug 15, 11:10am

Mon Aug 15, 10:10am

Mon Aug 15, 9:10am

Mon Aug 15, 8:10am

Mon Aug 15, 7:10am

Mon Aug 15, 6:10am

Mon Aug 15, 5:10am

Mon Aug 15, 4:10am

Mon Aug 15, 3:10am

Mon Aug 15, 2:10am

Mon Aug 15, 1:10am

Mon Aug 15, 12:10am

Sun Aug 14, 11:10pm

Sun Aug 14, 10:10pm

Sun Aug 14, 9:10pm

Sun Aug 14, 8:10pm

Sun Aug 14, 7:10pm

Sun Aug 14, 6:10pm

Sun Aug 14, 5:10pm

Sun Aug 14, 4:10pm

Sun Aug 14, 3:10pm

Sun Aug 14, 2:10pm

Sun Aug 14, 1:10pm

Sun Aug 14, 12:10pm

Sun Aug 14, 11:10am

Sun Aug 14, 10:10am

Sun Aug 14, 9:10am

Sun Aug 14, 8:10am

Sun Aug 14, 7:10am

Sun Aug 14, 6:10am

Sun Aug 14, 5:10am

Sun Aug 14, 4:10am

Sun Aug 14, 3:10am

Sun Aug 14, 2:10am

Sun Aug 14, 1:10am

Sun Aug 14, 12:10am

Sat Aug 13, 11:10pm

Sat Aug 13, 10:10pm

Sat Aug 13, 9:10pm

Sat Aug 13, 8:10pm

Sat Aug 13, 7:10pm

Sat Aug 13, 6:10pm

Sat Aug 13, 5:10pm

Sat Aug 13, 4:10pm

Sat Aug 13, 3:10pm

Sat Aug 13, 2:10pm

Sat Aug 13, 1:10pm

Sat Aug 13, 12:10pm

Sat Aug 13, 11:10am

Sat Aug 13, 10:10am

Sat Aug 13, 9:10am

Sat Aug 13, 8:10am

Sat Aug 13, 7:10am

Sat Aug 13, 6:10am

Sat Aug 13, 5:10am

Sat Aug 13, 4:10am

Sat Aug 13, 3:10am

Sat Aug 13, 2:10am

Sat Aug 13, 1:10am

Sat Aug 13, 12:10am

Fri Aug 12, 11:10pm

Fri Aug 12, 10:10pm

Fri Aug 12, 9:10pm

Fri Aug 12, 8:10pm

Fri Aug 12, 7:10pm

Fri Aug 12, 6:10pm

Fri Aug 12, 5:10pm

Fri Aug 12, 4:10pm

Fri Aug 12, 3:10pm

Fri Aug 12, 2:10pm

Fri Aug 12, 1:10pm

Fri Aug 12, 12:10pm

Fri Aug 12, 11:10am

Fri Aug 12, 10:10am

Fri Aug 12, 9:10am

Fri Aug 12, 8:10am

Fri Aug 12, 7:10am

Fri Aug 12, 6:10am

Fri Aug 12, 5:10am

Fri Aug 12, 4:10am

Fri Aug 12, 3:10am

Fri Aug 12, 2:10am

Fri Aug 12, 1:10am

Fri Aug 12, 12:10am

Thu Aug 11, 11:10pm

Thu Aug 11, 10:10pm

Thu Aug 11, 9:10pm

Thu Aug 11, 8:10pm

Thu Aug 11, 7:10pm

Thu Aug 11, 6:10pm

Thu Aug 11, 5:10pm

Thu Aug 11, 4:10pm

Thu Aug 11, 3:10pm

Thu Aug 11, 2:10pm

Thu Aug 11, 1:10pm

Thu Aug 11, 12:10pm

Thu Aug 11, 11:10am

Thu Aug 11, 10:10am

Thu Aug 11, 9:10am

Thu Aug 11, 8:10am

Thu Aug 11, 7:10am

Thu Aug 11, 6:10am

Thu Aug 11, 5:10am

Thu Aug 11, 4:10am

Thu Aug 11, 3:10am

Thu Aug 11, 2:10am

Thu Aug 11, 1:10am

Thu Aug 11, 12:10am

Wed Aug 10, 11:10pm

Wed Aug 10, 10:10pm

Wed Aug 10, 9:10pm

Wed Aug 10, 8:10pm

Wed Aug 10, 7:10pm

Meta data:

ID: 9e90b336-6730-49ef-b759-790a216a3ef1
Link: https://api.weather.gov/products/9e90b336-6730-49ef-b759-790a216a3ef1